This demonstration page uses our WeatherBlox Daily Observations layout. Learn more.

Hourly Observations for September 6, 2015

Temp ( °F °C ) Dew Point ( °F °C ) Humidity (%) Winds ( mph kmh ) Pressure ( in mb ) Visibility ( mi km ) Precip ( " mm )
12:15 am 00:15 Clear 78 25.5 62 16.5 58 58 SSE 12 19 29.71 1006 10 16.0934 0 0
12:35 am 00:35 Clear 77 25.2 61 16.3 58 58 SSE 12 19 29.74 1007 10 16.0934 0 0
12:55 am 00:55 Clear 78 25.4 61 16.1 56 56 SSE 13 20 29.74 1007 10 16.0934 0 0
1:15 am 01:15 Clear 77 25 61 16.1 58 58 SSE 13 20 29.74 1007 10 16.0934 0 0
1:35 am 01:35 Clear 77 24.8 61 16.1 59 59 S 13 20 29.74 1007 10 16.0934 0 0
1:55 am 01:55 Clear 77 24.8 61 16.2 59 59 SSE 10 17 29.74 1007 10 16.0934 0 0
2:15 am 02:15 Clear 76 24.5 61 16.3 60 60 SSE 12 19 29.74 1007 10 16.0934 0 0
2:35 am 02:35 Clear 76 24.6 61 16.3 60 60 S 14 22 29.74 1007 10 16.0934 0 0
2:55 am 02:55 Clear 76 24.6 61 16.3 60 60 S 14 22 29.74 1007 10 16.0934 0 0
3:15 am 03:15 Clear 76 24.5 61 16.2 60 60 S 13 20 29.74 1007 10 16.0934 0 0
3:35 am 03:35 Clear 76 24.5 61 16.2 60 60 S 14 22 29.68 1005 10 16.0934 0 0
3:55 am 03:55 Clear 76 24.3 61 16.1 60 60 SSE 15 24 29.71 1006 10 16.0934 0 0
4:15 am 04:15 Clear 75 24.1 61 16 61 61 S 14 22 29.71 1006 10 16.0934 0 0
4:35 am 04:35 Clear 75 24 61 16 61 61 S 13 20 29.71 1006 10 16.0934 0 0
4:55 am 04:55 Clear 74 23.6 61 16 63 63 S 13 20 29.71 1006 10 16.0934 0 0
5:15 am 05:15 Clear 74 23.6 61 16 63 63 S 14 22 29.71 1006 10 16.0934 0 0
5:35 am 05:35 Clear 74 23.3 61 16.1 64 64 S 10 17 29.71 1006 10 16.0934 0 0
5:55 am 05:55 Clear 73 23 61 16.3 66 66 S 8 13 29.71 1006 10 16.0934 0 0
6:15 am 06:15 Clear 73 22.6 62 16.5 69 69 S 8 13 29.71 1006 10 16.0934 0 0
6:35 am 06:35 Clear 73 22.6 62 16.5 69 69 S 8 13 29.71 1006 10 16.0934 0 0
6:55 am 06:55 Clear 73 22.8 62 16.5 68 68 S 7 11 29.74 1007 10 16.0934 0 0
7:15 am 07:15 Sunny 73 22.5 62 16.5 69 69 S 9 15 29.74 1007 10 16.0934 0 0
7:35 am 07:35 Sunny 72 22.3 62 16.6 70 70 S 8 13 29.74 1007 10 16.0934 0 0
7:55 am 07:55 Sunny 73 23 62 16.6 67 67 S 10 17 29.74 1007 10 16.0934 0 0
8:15 am 08:15 Sunny 73 22.8 62 16.6 68 68 SSW 7 11 29.77 1008 10 16.0934 0 0
8:35 am 08:35 Sunny 76 24.3 62 16.8 63 63 SSW 10 17 29.74 1007 10 16.0934 0 0
8:55 am 08:55 Sunny 79 25.9 62 16.5 56 56 SSW 12 19 29.71 1006 10 16.0934 0 0
9:15 am 09:15 Sunny 80 26.7 60 15.7 51 51 SSW 15 24 29.71 1006 10 16.0934 0 0
9:35 am 09:35 Sunny 79 26.2 61 16 53 53 SW 10 17 29.71 1006 10 16.0934 0 0
9:55 am 09:55 Sunny 81 27.1 60 15.6 49 49 SW 10 17 29.74 1007 10 16.0934 0 0
10:15 am 10:15 Sunny 81 27 60 15.5 49 49 SSW 8 13 29.74 1007 10 16.0934 0 0
10:35 am 10:35 Sunny 83 28.5 59 15.2 44 44 SW 10 17 29.74 1007 10 16.0934 0 0
10:55 am 10:55 Partly Cloudy 82 27.6 60 15.6 48 48 WSW 7 11 29.77 1008 10 16.0934 0 0
11:15 am 11:15 Sunny 83 28.3 58 14.7 43 43 W 8 13 29.77 1008 10 16.0934 0 0
11:35 am 11:35 Sunny 84 28.9 56 13.6 39 39 W 6 9 29.77 1008 10 16.0934 0 0
11:55 am 11:55 Sunny 85 29.4 57 14 39 39 WSW 5 7 29.77 1008 10 16.0934 0 0
12:15 pm 12:15 Sunny 84 29.1 58 14.6 41 41 NW 6 9 29.77 1008 10 16.0934 0 0
12:35 pm 12:35 Sunny 85 29.7 59 15.2 41 41 NW 6 9 29.74 1007 10 16.0934 0 0
12:55 pm 12:55 Sunny 85 29.7 59 15.2 41 41 NNW 5 7 29.74 1007 10 16.0934 0 0
1:15 pm 13:15 Sunny 84 28.8 61 16.2 46 46 NW 7 11 29.77 1008 10 16.0934 0 0
1:35 pm 13:35 Sunny 85 29.6 61 16.3 45 45 NNW 6 9 29.74 1007 10 16.0934 0 0
1:55 pm 13:55 Sunny 86 29.9 62 16.7 45 45 N 6 9 29.74 1007 10 16.0934 0 0
2:15 pm 14:15 Sunny 85 29.4 62 16.5 46 46 NNW 8 13 29.77 1008 10 16.0934 0 0
2:35 pm 14:35 Sunny 85 29.5 61 16.2 45 45 N 10 17 29.77 1008 10 16.0934 0 0
2:55 pm 14:55 Sunny 85 29.5 61 16.2 45 45 N 13 20 29.77 1008 10 16.0934 0 0
3:15 pm 15:15 Sunny 85 29.7 60 15.7 43 43 N 12 19 29.77 1008 10 16.0934 0 0
3:35 pm 15:35 Sunny 86 30.1 60 15.8 42 42 N 8 13 29.77 1008 10 16.0934 0 0
3:55 pm 15:55 Sunny 86 30.1 61 16.2 43 43 N 13 20 29.77 1008 10 16.0934 0 0
4:15 pm 16:15 Sunny 86 30.1 60 15.8 42 42 N 9 15 29.77 1008 10 16.0934 0 0
4:35 pm 16:35 Sunny 86 30.2 60 15.6 41 41 N 13 20 29.77 1008 10 16.0934 0 0
4:55 pm 16:55 Sunny 85 29.6 60 15.7 43 43 N 13 20 29.77 1008 10 16.0934 0 0
5:15 pm 17:15 Sunny 86 30.1 62 16.9 45 45 N 10 17 29.77 1008 10 16.0934 0 0
5:35 pm 17:35 Sunny 85 29.4 62 16.7 46 46 N 12 19 29.8 1009 10 16.0934 0 0
5:55 pm 17:55 Sunny 85 29.2 62 16.7 47 47 NNE 13 20 29.8 1009 10 16.0934 0 0
6:15 pm 18:15 Sunny 85 29.4 63 17.4 48 48 N 9 15 29.8 1009 10 16.0934 0 0
6:35 pm 18:35 Sunny 81 27.3 62 16.9 53 53 N 9 15 29.8 1009 10 16.0934 0 0
6:55 pm 18:55 Sunny 81 27 62 16.8 54 54 N 8 13 29.8 1009 10 16.0934 0 0
7:15 pm 19:15 Sunny 80 26.8 62 16.5 53 53 N 9 15 29.8 1009 10 16.0934 0 0
7:35 pm 19:35 Sunny 78 25.5 63 17 59 59 N 8 13 29.83 1010 10 16.0934 0 0
7:55 pm 19:55 Sunny 76 24.2 63 17.4 66 66 N 7 11 29.83 1010 10 16.0934 0 0
8:15 pm 20:15 Clear 76 24.2 63 17.3 65 65 N 8 13 29.83 1010 10 16.0934 0 0
8:35 pm 20:35 Clear 74 23.6 63 17.1 67 67 N 8 13 29.85 1011 10 16.0934 0 0
8:55 pm 20:55 Clear 73 22.6 62 16.8 70 70 N 7 11 29.85 1011 10 16.0934 0 0
9:15 pm 21:15 Clear 69 20.8 63 17 79 79 N 6 9 29.88 1012 10 16.0934 0 0
9:35 pm 21:35 Clear 70 21.1 62 16.7 76 76 N 6 9 29.88 1012 10 16.0934 0 0
9:55 pm 21:55 Clear 67 19.3 62 16.5 84 84 N 6 9 29.91 1013 10 16.0934 0 0
10:15 pm 22:15 Clear 66 18.9 61 16.3 85 85 N 6 9 29.91 1013 10 16.0934 0 0
10:35 pm 22:35 Clear 65 18.3 61 16 87 87 NE 7 11 29.91 1013 10 16.0934 0 0
10:55 pm 22:55 Clear 65 18.5 61 16.2 87 87 NE 5 7 29.94 1014 10 16.0934 0 0
11:15 pm 23:15 Clear 64 18 61 16.1 89 89 NE 5 7 29.94 1014 10 16.0934 0 0
11:35 pm 23:35 Clear 64 17.7 61 16 90 90 NNE 6 9 29.94 1014 10 16.0934 0 0
11:55 pm 23:55 Clear 65 18.1 61 16.3 89 89 NNE 7 11 29.94 1014 10 16.0934 0 0

Powered by AerisWeather